Regional Weather Roundup
Issued by NWS Little Rock, AR

Home | Current Version | Previous Version | Graphics & Text | Print | Product List | Glossary On
Versions: 1 2 3 4 5 6 7 8 9 10 11 12 13 14 15 16 17 18 19 20 21 22 23 24 25 26 27
000
ASUS44 KLZK 271205
RWRLZK

WEATHER ROUNDUP FOR ARKANSAS
NATIONAL WEATHER SERVICE LITTLE ROCK AR
700 AM CDT SAT AUG 27 2016

NOTE: "FAIR" INDICATES FEW OR NO CLOUDS BELOW 12,000 FEET WITH NO
SIGNIFICANT WEATHER AND/OR OBSTRUCTIONS TO VISIBILITY.

ARZ001-003-010-029-271300-
NORTHWEST ARKANSAS

CITY           SKY/WX    TMP DP  RH WIND       PRES   REMARKS
FAYETTEVILLE   CLOUDY    66  66 100 CALM      30.09R FOG
6HR MIN TEMP:  65; 6HR MAX TEMP:  70;

FORT SMITH     CLOUDY    74  71  91 E3        30.04R
6HR MIN TEMP:  74; 6HR MAX TEMP:  76;

HARRISON       FOG       69  69 100 S3        30.10R VSB 1/4
6HR MIN TEMP:  68; 6HR MAX TEMP:  73;

BENTONVILLE    CLOUDY    70  64  83 CALM      30.09R
6HR MIN TEMP:  70; 6HR MAX TEMP:  72;

ROGERS         CLEAR     70  69  97 SE3       30.10R
6HR MIN TEMP:  70; 6HR MAX TEMP:  72;

SILOAM SPGS    CLOUDY    70  61  73 CALM      30.10R
6HR MIN TEMP:  70; 6HR MAX TEMP:  70;

HIGHFILL       PTCLDY    69  69 100 CALM      30.09R
6HR MIN TEMP:  68; 6HR MAX TEMP:  72;

SPRINGDALE     CLEAR     70  70 100 CALM      30.11R
$$

ARZ004-005-016-271300-
NORTH CENTRAL ARKANSAS

CITY           SKY/WX    TMP DP  RH WIND       PRES   REMARKS
BATESVILLE     CLOUDY    70  70 100 CALM      30.08R VSB 1/4
6HR MIN TEMP:  70; 6HR MAX TEMP:  72;

FLIPPIN        CLOUDY    72  66  83 CALM      30.05R VSB<1/4
6HR MIN TEMP:  70; 6HR MAX TEMP:  72;

MTN HOME       CLOUDY    71  71 100 CALM      30.07R FOG
6HR MIN TEMP:  70; 6HR MAX TEMP:  72;

$$

ARZ040-041-271300-
WEST CENTRAL ARKANSAS

CITY           SKY/WX    TMP DP  RH WIND       PRES   REMARKS
MENA           MOCLDY    72  70  94 CALM      30.07R
MOUNT IDA      PTCLDY    72  70  93 CALM      30.04R
6HR MIN TEMP:  72; 6HR MAX TEMP:  74;

$$

ARZ009-017-025-026-028-271300-
NORTHEAST ARKANSAS

CITY           SKY/WX    TMP DP  RH WIND       PRES   REMARKS
JONESBORO      CLOUDY    72  71  97 CALM      30.07R
6HR MIN TEMP:  70; 6HR MAX TEMP:  73;

NEWPORT        MOCLDY    72  72 100 CALM      30.08R FOG
6HR MIN TEMP:  70; 6HR MAX TEMP:  73;

WALNUT RIDGE   PTCLDY    72  70  94 CALM      30.06S
6HR MIN TEMP:  72; 6HR MAX TEMP:  73;

BLYTHEVILLE    CLOUDY    70  70 100 CALM      30.07R
6HR MIN TEMP:  70; 6HR MAX TEMP:  73;

$$

ARZ022-023-033-042-044-271300-
CENTRAL ARKANSAS

CITY           SKY/WX    TMP DP  RH WIND       PRES   REMARKS
LITTLE ROCK    MOCLDY    76  72  87 CALM      30.06R FOG
6HR MIN TEMP:  76; 6HR MAX TEMP:  78;

N LITTLE ROCK    N/A     72  71  96 CALM      30.03R
6HR MIN TEMP:  72; 6HR MAX TEMP:  75;

JACKSONVILLE   MOCLDY    73  73 100 CALM      30.05R
6HR MIN TEMP:  73; 6HR MAX TEMP:  75;

SEARCY         MOCLDY    73  72  96 NE3       30.08R
6HR MIN TEMP:  73; 6HR MAX TEMP:  74;

HOT SPRINGS    PTCLDY    74  71  91 CALM      30.06R
6HR MIN TEMP:  73; 6HR MAX TEMP:  76;

RUSSELLVILLE   PTCLDY    74  72  93 VRB3      30.05R
6HR MIN TEMP:  72; 6HR MAX TEMP:  75;

$$

ARZ036-271300-
EAST ARKANSAS

CITY           SKY/WX    TMP DP  RH WIND       PRES   REMARKS
WEST MEMPHIS   PTCLDY    69  68  96 NW3       30.05R FOG
6HR MIN TEMP:  68; 6HR MAX TEMP:  73;

$$

ARZ050-053-066-070-073-271300-
SOUTHWEST ARKANSAS

CITY           SKY/WX    TMP DP  RH WIND       PRES   REMARKS
ARKADELPHIA    FAIR      73  73 100 NE5       30.05R
6HR MIN TEMP:  73; 6HR MAX TEMP:  77;

TEXARKANA      PTCLDY    72  71  97 E3        30.03R FOG
6HR MIN TEMP:  72; 6HR MAX TEMP:  76;

EL DORADO      CLEAR     71  70  96 CALM      30.04R
6HR MIN TEMP:  70; 6HR MAX TEMP:  74;

DE QUEEN       CLEAR     73  73 100 CALM      30.01R FOG
6HR MIN TEMP:  73; 6HR MAX TEMP:  75;

$$

ARZ056-057-069-271300-
SOUTHEAST ARKANSAS

CITY           SKY/WX    TMP DP  RH WIND       PRES   REMARKS
PINE BLUFF     MOCLDY    73  72  96 NW7       30.05R
6HR MIN TEMP:  72; 6HR MAX TEMP:  74;

STUTTGART      CLOUDY    73  70  88 N7        30.06R
6HR MIN TEMP:  72; 6HR MAX TEMP:  75;

MONTICELLO     HAZE      76  71  85 CALM      30.03R VSB 1/4
6HR MIN TEMP:  76; 6HR MAX TEMP:  77;


$$






USA.gov is the U.S. government's official web portal to all federal, state and local government web resources and services.